EW3948 Weather Reports


time (UTC)temp
C
wind
direction
speed
KPH
gust
KPH
rain 1hr
cm
rain 24hr
cm
rain mn
cm
humidity
%
barometer
mb
20260508183503 20 0.0 0.0 0.00 0.00 0.00 39 1013.5
20260508183011 20 0.0 0.0 0.00 0.00 0.00 37 1013.5
20260508182505 20 0.0 0.0 0.00 0.00 0.00 35 1013.7
20260508182006 20 0.0 0.0 0.00 0.00 0.00 36 1013.6
20260508181521 20 0.0 0.0 0.00 0.00 0.00 34 1013.6
20260508181003 20 0.0 0.0 0.00 0.00 0.00 40 1013.8
20260508180506 20 0.0 0.0 0.00 0.00 0.00 45 1013.8
20260508180008 20 0.0 0.0 0.00 0.00 0.00 39 1014.0
20260508175503 20 0.0 0.0 0.00 0.00 0.00 40 1014.1
20260508175006 20 0.0 0.0 0.00 0.00 0.00 42 1014.2
20260508174509 20 0.0 0.0 0.00 0.00 0.00 42 1014.3
20260508174009 20 0.0 0.0 0.00 0.00 0.00 41 1014.4
20260508173505 20 0.0 0.0 0.00 0.00 0.00 42 1014.4
20260508173013 20 0.0 0.0 0.00 0.00 0.00 41 1014.5
20260508172510 20 0.0 0.0 0.00 0.00 0.00 41 1014.6
20260508172007 20 0.0 0.0 0.00 0.00 0.00 43 1014.6
20260508171517 20 0.0 0.0 0.00 0.00 0.00 45 1014.7
20260508171014 19 0.0 0.0 0.00 0.00 0.00 39 1014.8
20260508170504 19 0.0 0.0 0.00 0.00 0.00 39 1014.9
20260508170015 19 0.0 0.0 0.00 0.00 0.00 41 1015.0
20260508165504 20 0.0 0.0 0.00 0.00 0.00 42 1015.1
20260508165005 19 0.0 0.0 0.00 0.00 0.00 41 1015.1
20260508164519 18 0.0 0.0 0.00 0.00 0.00 43 1015.1
20260508164008 19 0.0 0.0 0.00 0.00 0.00 41 1015.3
20260508163504 19 0.0 0.0 0.00 0.00 0.00 40 1015.3
20260508163010 19 0.0 0.0 0.00 0.00 0.00 39 1015.4
20260508162507 19 0.0 0.0 0.00 0.00 0.00 39 1015.4
20260508162005 19 0.0 0.0 0.00 0.00 0.00 43 1015.5
20260508161511 18 0.0 0.0 0.00 0.00 0.00 45 1015.8
20260508161005 18 0.0 0.0 0.00 0.00 0.00 42 1015.8
20260508160506 18 0.0 0.0 0.00 0.00 0.00 40 1015.9
20260508160006 18 0.0 0.0 0.00 0.00 0.00 45 1016.0
20260508155502 18 0.0 0.0 0.00 0.00 0.00 45 1016.2
20260508155006 18 0.0 0.0 0.00 0.00 0.00 44 1016.1
20260508154503 18 0.0 0.0 0.00 0.00 0.00 45 1016.2
20260508154001 17 0.0 0.0 0.00 0.00 0.00 43 1016.3
20260508153502 17 0.0 0.0 0.00 0.00 0.00 45 1016.4
20260508153011 17 0.0 0.0 0.00 0.00 0.00 46 1016.4
20260508152502 17 0.0 0.0 0.00 0.00 0.00 44 1016.4
20260508152008 17 0.0 0.0 0.00 0.00 0.00 48 1016.3
20260508151523 17 0.0 0.0 0.00 0.00 0.00 48 1016.3
20260508151010 17 0.0 0.0 0.00 0.00 0.00 46 1016.3
20260508150502 16 0.0 0.0 0.00 0.00 0.00 44 1016.4
20260508150016 16 0.0 0.0 0.00 0.00 0.00 49 1016.3
20260508145507 16 0.0 0.0 0.00 0.00 0.00 50 1016.3
20260508145003 15 0.0 0.0 0.00 0.00 0.00 52 1016.3
20260508144510 15 0.0 0.0 0.00 0.00 0.00 52 1016.3
20260508144005 15 0.0 0.0 0.00 0.00 0.00 55 1016.3
20260508143503 15 0.0 0.0 0.00 0.00 0.00 53 1016.3
20260508143006 14 0.0 0.0 0.00 0.00 0.00 59 1016.4
20260508142502 14 0.0 0.0 0.00 0.00 0.00 57 1016.3
20260508142002 13 0.0 0.0 0.00 0.00 0.00 59 1016.4
20260508141512 13 0.0 0.0 0.00 0.00 0.00 61 1016.4
20260508141003 13 0.0 0.0 0.00 0.00 0.00 62 1016.5
20260508140510 12 0.0 0.0 0.00 0.00 0.00 64 1016.6
20260508140015 11 0.0 0.0 0.00 0.00 0.00 67 1016.6
20260508135503 11 0.0 0.0 0.00 0.00 0.00 70 1016.6
20260508135006 10 0.0 0.0 0.00 0.00 0.00 71 1016.6
20260508134520 10 0.0 0.0 0.00 0.00 0.00 73 1016.6
20260508134008 9 0.0 0.0 0.00 0.00 0.00 75 1016.6
20260508133502 8 0.0 0.0 0.00 0.00 0.00 79 1016.6
20260508133014 8 0.0 0.0 0.00 0.00 0.00 79 1016.6
20260508132505 8 0.0 0.0 0.00 0.00 0.00 80 1016.6
20260508132002 7 0.0 0.0 0.00 0.00 0.00 81 1016.6
20260508131506 7 0.0 0.0 0.00 0.00 0.00 84 1016.7
20260508131003 6 0.0 0.0 0.00 0.00 0.00 87 1016.6
20260508130503 6 0.0 0.0 0.00 0.00 0.00 89 1016.7
20260508130012 6 0.0 0.0 0.00 0.00 0.00 90 1016.7
20260508125506 5 0.0 0.0 0.00 0.00 0.00 91 1016.7
20260508125003 5 0.0 0.0 0.00 0.00 0.00 92 1016.7
20260508124508 5 0.0 0.0 0.00 0.00 0.00 92 1016.8
20260508124005 4 0.0 0.0 0.00 0.00 0.00 92 1016.8
20260508123506 4 0.0 0.0 0.00 0.00 0.00 93 1016.9
20260508123024 3 0.0 0.0 0.00 0.00 0.00 93 1016.8
20260508122505 3 0.0 0.0 0.00 0.00 0.00 93 1016.8
20260508122007 3 0.0 0.0 0.00 0.00 0.00 93 1016.8
20260508121526 3 0.0 0.0 0.00 0.00 0.00 92 1016.8
20260508121009 2 0.0 0.0 0.00 0.00 0.00 92 1016.8
20260508120505 2 0.0 0.0 0.00 0.00 0.00 92 1016.7
20260508120011 2 0.0 0.0 0.00 0.00 0.00 92 1016.7
20260508115503 2 0.0 0.0 0.00 0.00 0.00 92 1016.7
20260508115002 1 0.0 0.0 0.00 0.00 0.00 92 1016.6
20260508114513 1 0.0 0.0 0.00 0.00 0.00 91 1016.6
20260508114006 1 0.0 0.0 0.00 0.00 0.00 91 1016.5
20260508113507 1 0.0 0.0 0.00 0.00 0.00 91 1016.5
20260508113016 1 0.0 0.0 0.00 0.00 0.00 91 1016.5
20260508112508 1 0.0 0.0 0.00 0.00 0.00 90 1016.5
20260508112008 1 0.0 0.0 0.00 0.00 0.00 90 1016.5
20260508111510 1 0.0 0.0 0.00 0.00 0.00 90 1016.4
20260508111008 1 0.0 0.0 0.00 0.00 0.00 90 1016.4
20260508110508 1 0.0 0.0 0.00 0.00 0.00 90 1016.4
20260508110025 1 0.0 0.0 0.00 0.00 0.00 90 1016.4
20260508105506 1 0.0 0.0 0.00 0.00 0.00 90 1016.3
20260508105007 1 0.0 0.0 0.00 0.00 0.00 90 1016.2
20260508104511 1 0.0 0.0 0.00 0.00 0.00 90 1016.2
20260508104003 1 0.0 0.0 0.00 0.00 0.00 90 1016.2
20260508103506 1 0.0 0.0 0.00 0.00 0.00 90 1016.2
20260508103015 1 0.0 0.0 0.00 0.00 0.00 90 1016.2
20260508102508 1 0.0 0.0 0.00 0.00 0.00 90 1016.2
20260508102004 1 0.0 0.0 0.00 0.00 0.00 90 1016.2
20260508101522 1 0.0 0.0 0.00 0.00 0.00 90 1016.1
20260508101010 1 0.0 0.0 0.00 0.00 0.00 90 1016.1
20260508100507 1 0.0 0.0 0.00 0.00 0.00 90 1016.0
20260508100017 1 0.0 0.0 0.00 0.00 0.00 89 1015.9
20260508095507 1 0.0 0.0 0.00 0.00 0.00 89 1015.9
20260508095010 1 0.0 0.0 0.00 0.00 0.00 89 1015.8
20260508094511 1 0.0 0.0 0.00 0.00 0.00 90 1015.8
20260508092507 2 0.0 0.0 0.00 0.00 0.00 89 1015.9
20260508092006 2 0.0 0.0 0.00 0.00 0.00 89 1015.9
20260508091528 2 0.0 0.0 0.00 0.00 0.00 89 1016.0
20260508091006 2 0.0 0.0 0.00 0.00 0.00 89 1016.0
20260508090506 2 0.0 0.0 0.00 0.00 0.00 89 1016.0
20260508090021 2 0.0 0.0 0.00 0.00 0.00 89 1016.0
20260508085505 2 0.0 0.0 0.00 0.00 0.00 89 1016.0
20260508085010 2 0.0 0.0 0.00 0.00 0.00 89 1015.9
20260508084522 2 0.0 0.0 0.00 0.00 0.00 89 1015.8
20260508084007 2 0.0 0.0 0.00 0.00 0.00 89 1015.8
20260508083509 2 0.0 0.0 0.00 0.00 0.00 89 1015.8
20260508083029 2 0.0 0.0 0.00 0.00 0.00 89 1015.7
20260508082508 2 0.0 0.0 0.00 0.00 0.00 89 1015.7
20260508082012 2 0.0 0.0 0.00 0.00 0.00 89 1015.7
20260508081516 2 0.0 0.0 0.00 0.00 0.00 89 1015.6
20260508081006 2 0.0 0.0 0.00 0.00 0.00 88 1015.7
20260508080506 2 0.0 0.0 0.00 0.00 0.00 88 1015.7
20260508080017 2 0.0 0.0 0.00 0.00 0.00 88 1015.7
20260508075509 2 0.0 0.0 0.00 0.00 0.00 88 1015.7
20260508075010 2 0.0 0.0 0.00 0.00 0.00 88 1015.7
20260508074522 2 0.0 0.0 0.00 0.00 0.00 88 1015.7
20260508074009 2 0.0 0.0 0.00 0.00 0.00 88 1015.7
20260508073510 2 0.0 0.0 0.00 0.00 0.00 88 1015.8
20260508073028 2 0.0 0.0 0.00 0.00 0.00 88 1015.7
20260508072513 2 0.0 0.0 0.00 0.00 0.00 88 1015.8
20260508072006 3 0.0 0.0 0.00 0.00 0.00 88 1015.8
20260508071504 3 0.0 0.0 0.00 0.00 0.00 88 1015.8
20260508071003 3 0.0 0.0 0.00 0.00 0.00 88 1015.8
20260508070507 3 0.0 0.0 0.00 0.00 0.00 88 1015.9
20260508070015 3 0.0 0.0 0.00 0.00 0.00 88 1015.9
20260508065506 3 0.0 0.0 0.00 0.00 0.00 87 1015.9
20260508065005 3 0.0 0.0 0.00 0.00 0.00 87 1015.9
20260508064522 3 0.0 0.0 0.00 0.00 0.00 87 1015.9
20260508064003 3 0.0 0.0 0.00 0.00 0.00 87 1015.9
20260508063501 3 0.0 0.0 0.00 0.00 0.00 86 1015.9
20260508063003 3 0.0 0.0 0.00 0.00 0.00 86 1015.9
20260508062504 3 0.0 0.0 0.00 0.00 0.00 86 1015.9
20260508062005 3 0.0 0.0 0.00 0.00 0.00 86 1015.9
20260508061505 3 0.0 0.0 0.00 0.00 0.00 87 1015.9
20260508061004 3 0.0 0.0 0.00 0.00 0.00 86 1015.9
20260508060502 3 0.0 0.0 0.00 0.00 0.00 86 1015.9
20260508060010 3 0.0 0.0 0.00 0.00 0.00 86 1015.9
20260508055503 3 0.0 0.0 0.00 0.00 0.00 86 1015.9
20260508055003 3 0.0 0.0 0.00 0.00 0.00 86 1015.9
20260508054508 4 0.0 0.0 0.00 0.00 0.00 86 1015.9
20260508054005 4 0.0 0.0 0.00 0.00 0.00 86 1016.0
20260508053508 4 0.0 0.0 0.00 0.00 0.00 85 1016.0
20260508053031 4 0.0 0.0 0.00 0.00 0.00 86 1015.9
20260508052503 4 0.0 0.0 0.00 0.00 0.00 85 1015.9
20260508052009 4 0.0 0.0 0.00 0.00 0.00 85 1015.9
20260508051505 4 0.0 0.0 0.00 0.00 0.00 85 1015.9
20260508051003 4 0.0 0.0 0.00 0.00 0.00 85 1015.9
20260508050503 4 0.0 0.0 0.00 0.00 0.00 84 1015.9
20260508050012 5 0.0 0.0 0.00 0.00 0.00 83 1015.9
20260508045502 5 0.0 0.0 0.00 0.00 0.00 83 1015.9
20260508045003 5 0.0 0.0 0.00 0.00 0.00 83 1015.9
20260508044514 5 0.0 0.0 0.00 0.00 0.00 82 1015.9
20260508044004 5 0.0 0.0 0.00 0.00 0.00 82 1015.9
20260508043503 5 0.0 0.0 0.00 0.00 0.00 82 1015.9
20260508043012 5 0.0 0.0 0.00 0.00 0.00 82 1016.0
20260508042504 5 0.0 0.0 0.00 0.00 0.00 81 1015.9
20260508042011 5 0.0 0.0 0.00 0.00 0.00 81 1015.9
20260508041513 5 0.0 0.0 0.00 0.00 0.00 80 1015.9
20260508041003 5 0.0 0.0 0.00 0.00 0.00 80 1016.0
20260508040508 5 0.0 0.0 0.00 0.00 0.00 79 1016.0
20260508040008 6 0.0 0.0 0.00 0.00 0.00 80 1016.0
20260508035503 6 0.0 0.0 0.00 0.00 0.00 79 1016.1
20260508035004 6 0.0 0.0 0.00 0.00 0.00 79 1016.0
20260508034516 6 0.0 0.0 0.00 0.00 0.00 79 1016.0
20260508034003 6 0.0 0.0 0.00 0.00 0.00 78 1016.0
20260508033503 6 0.0 0.0 0.00 0.00 0.00 78 1015.9
20260508033023 6 0.0 0.0 0.00 0.00 0.00 78 1015.9
20260508032504 6 0.0 0.0 0.00 0.00 0.00 78 1016.0
20260508032006 6 0.0 0.0 0.00 0.00 0.00 76 1016.0
20260508031520 6 0.0 0.0 0.00 0.00 0.00 76 1016.0
20260508031007 7 0.0 0.0 0.00 0.00 0.00 76 1016.0
20260508030503 7 0.0 0.0 0.00 0.00 0.00 76 1016.0
20260508030018 7 0.0 0.0 0.00 0.00 0.00 75 1015.9
20260508025508 7 0.0 0.0 0.00 0.00 0.00 74 1016.0
20260508025007 7 0.0 0.0 0.00 0.00 0.00 74 1015.9
20260508024519 7 0.0 0.0 0.00 0.00 0.00 73 1015.9
20260508024003 7 0.0 0.0 0.00 0.00 0.00 73 1015.9
20260508023503 7 0.0 0.0 0.00 0.00 0.00 72 1015.9
20260508023015 7 0.0 0.0 0.00 0.00 0.00 71 1015.8
20260508022507 8 0.0 0.0 0.00 0.00 0.00 71 1015.8
20260508022004 8 0.0 0.0 0.00 0.00 0.00 68 1015.7
20260508021527 8 0.0 0.0 0.00 0.00 0.00 68 1015.6
20260508021008 8 0.0 0.0 0.00 0.00 0.00 68 1015.5
20260508020507 8 0.0 0.0 0.00 0.00 0.00 67 1015.4
20260508020021 9 0.0 0.0 0.00 0.00 0.00 66 1015.4
20260508015507 9 0.0 0.0 0.00 0.00 0.00 65 1015.3
20260508015004 10 0.0 0.0 0.00 0.00 0.00 63 1015.3
20260508014521 10 0.0 0.0 0.00 0.00 0.00 64 1015.3
20260508014009 10 0.0 0.0 0.00 0.00 0.00 63 1015.2
20260508013504 10 0.0 0.0 0.00 0.00 0.00 61 1015.2
20260508013017 10 0.0 0.0 0.00 0.00 0.00 60 1015.1
20260508012503 10 0.0 0.0 0.00 0.00 0.00 60 1015.0
20260508012005 11 0.0 0.0 0.00 0.00 0.00 57 1014.9
20260508011513 11 0.0 0.0 0.00 0.00 0.00 57 1014.9
20260508011004 11 0.0 0.0 0.00 0.00 0.00 57 1014.8
20260508010505 11 0.0 0.0 0.00 0.00 0.00 55 1014.7
20260508010032 11 0.0 0.0 0.00 0.00 0.00 54 1014.6
20260508005505 11 0.0 0.0 0.00 0.00 0.00 53 1014.6
20260508005008 11 0.0 0.0 0.00 0.00 0.00 54 1014.5
20260508004522 12 0.0 0.0 0.00 0.00 0.00 52 1014.5
20260508004006 12 0.0 0.0 0.00 0.00 0.00 51 1014.5
20260508003506 12 0.0 0.0 0.00 0.00 0.00 53 1014.4
20260508003025 12 0.0 0.0 0.00 0.00 0.00 51 1014.5
20260508002509 12 0.0 0.0 0.00 0.00 0.00 50 1014.5
20260508002004 12 0.0 0.0 0.00 0.00 0.00 49 1014.5
20260508001522 13 0.0 0.0 0.00 0.00 0.00 49 1014.4
20260508001004 13 0.0 0.0 0.00 0.00 0.00 48 1014.4
20260508000504 13 0.0 0.0 0.00 0.00 0.00 49 1014.3
20260508000015 13 0.0 0.0 0.00 0.00 0.00 50 1014.3
20260507235509 13 0.0 0.0 0.00 0.00 0.00 47 1014.2
20260507235007 13 0.0 0.0 0.00 0.00 0.00 47 1014.2
20260507234518 13 0.0 0.0 0.00 0.00 0.00 46 1014.2
20260507234008 13 0.0 0.0 0.00 0.00 0.00 44 1014.1
20260507233506 14 0.0 0.0 0.00 0.00 0.00 44 1014.1
20260507233015 14 0.0 0.0 0.00 0.00 0.00 44 1014.0
20260507232507 14 0.0 0.0 0.00 0.00 0.00 44 1014.1
20260507232013 14 0.0 0.0 0.00 0.00 0.00 47 1014.0
20260507231530 15 0.0 0.0 0.00 0.00 0.00 42 1014.0
20260507231004 15 0.0 0.0 0.00 0.00 0.00 42 1013.9
20260507230507 15 0.0 0.0 0.00 0.00 0.00 41 1013.9
20260507230045 15 0.0 0.0 0.00 0.00 0.00 39 1013.9
20260507225508 15 0.0 0.0 0.00 0.00 0.00 42 1013.9
20260507225005 15 0.0 0.0 0.00 0.00 0.00 40 1013.9
20260507224519 16 0.0 0.0 0.00 0.00 0.00 41 1013.9
20260507224006 16 0.0 0.0 0.00 0.00 0.00 39 1013.9
20260507223507 16 0.0 0.0 0.00 0.00 0.00 35 1013.9
20260507223040 16 0.0 0.0 0.00 0.00 0.00 36 1013.8
20260507222506 16 0.0 0.0 0.00 0.00 0.00 37 1013.9
20260507222007 16 0.0 0.0 0.00 0.00 0.00 40 1013.8
20260507221520 16 0.0 0.0 0.00 0.00 0.00 35 1013.8
20260507221009 16 0.0 0.0 0.00 0.00 0.00 37 1013.8
20260507220508 16 0.0 0.0 0.00 0.00 0.00 36 1013.9
20260507220017 17 0.0 0.0 0.00 0.00 0.00 38 1013.7
20260507215509 17 0.0 0.0 0.00 0.00 0.00 34 1013.7
20260507215009 17 0.0 0.0 0.00 0.00 0.00 39 1013.6
20260507214530 17 0.0 0.0 0.00 0.00 0.00 33 1013.6
20260507214005 17 0.0 0.0 0.00 0.00 0.00 36 1013.5
20260507213506 17 0.0 0.0 0.00 0.00 0.00 40 1013.4
20260507213020 17 0.0 0.0 0.00 0.00 0.00 42 1013.5
20260507212506 17 0.0 0.0 0.00 0.00 0.00 37 1013.5
20260507212010 17 0.0 0.0 0.00 0.00 0.00 36 1013.4
20260507211524 17 0.0 0.0 0.00 0.00 0.00 39 1013.5
20260507211006 17 0.0 0.0 0.00 0.00 0.00 33 1013.5
20260507210507 17 0.0 0.0 0.00 0.00 0.00 34 1013.4
20260507210035 17 0.0 0.0 0.00 0.00 0.00 36 1013.5
20260507205507 17 0.0 0.0 0.00 0.00 0.00 40 1013.5
20260507205012 17 0.0 0.0 0.00 0.00 0.00 37 1013.4
20260507204525 17 0.0 0.0 0.00 0.00 0.00 31 1013.4
20260507204008 17 0.0 0.0 0.00 0.00 0.00 39 1013.3
20260507203512 17 0.0 0.0 0.00 0.00 0.00 37 1013.2
20260507203032 17 0.0 0.0 0.00 0.00 0.00 37 1013.2
20260507202505 17 0.0 0.0 0.00 0.00 0.00 38 1013.1
20260507202009 17 0.0 0.0 0.00 0.00 0.00 36 1013.3
20260507201521 17 0.0 0.0 0.00 0.00 0.00 38 1013.3
20260507201011 17 0.0 0.0 0.00 0.00 0.00 37 1013.3
20260507200507 17 0.0 0.0 0.00 0.00 0.00 41 1013.3
20260507200046 17 0.0 0.0 0.00 0.00 0.00 36 1013.4
20260507195506 17 0.0 0.0 0.00 0.00 0.00 37 1013.4
20260507195011 17 0.0 0.0 0.00 0.00 0.00 41 1013.3
20260507194528 17 0.0 0.0 0.00 0.00 0.00 42 1013.3
20260507194008 17 0.0 0.0 0.00 0.00 0.00 36 1013.4
20260507193508 17 0.0 0.0 0.00 0.00 0.00 38 1013.4
20260507193040 17 0.0 0.0 0.00 0.00 0.00 39 1013.5
20260507192510 17 0.0 0.0 0.00 0.00 0.00 35 1013.4
20260507192009 17 0.0 0.0 0.00 0.00 0.00 41 1013.4
20260507191526 17 0.0 0.0 0.00 0.00 0.00 40 1013.4
20260507191009 17 0.0 0.0 0.00 0.00 0.00 38 1013.5
20260507190507 17 0.0 0.0 0.00 0.00 0.00 39 1013.5
20260507190032 17 0.0 0.0 0.00 0.00 0.00 43 1013.5
20260507185506 17 0.0 0.0 0.00 0.00 0.00 47 1013.5
20260507185003 17 0.0 0.0 0.00 0.00 0.00 45 1013.5
20260507184509 17 0.0 0.0 0.00 0.00 0.00 44 1013.6
20260507184002 17 0.0 0.0 0.00 0.00 0.00 41 1013.6